This is the latest recevied weather packets stored in our database for station/object OE3MHU-13. If no packets are shown the sender has not sent any weather packets the latest 10 day(s).
| Time | Temp. | Humidity | Pressure | Rain* | Wind** | Luminosity | Snow |
|---|---|---|---|---|---|---|---|
| 1787466949 | 18.89° C | 72% | 1024.6 hPa | 0 mm | - | - | - |
| 1787466645 | 18.89° C | 72% | 1024.6 hPa | 0 mm | - | - | - |
| 1787466343 | 18.89° C | 72% | 1024.6 hPa | 0 mm | - | - | - |
| 1787466041 | 18.89° C | 73% | 1024.6 hPa | 0 mm | - | - | - |
| 1787465740 | 18.33° C | 73% | 1024.6 hPa | 0 mm | - | - | - |
| 1787465435 | 18.33° C | 74% | 1024.6 hPa | 0 mm | - | - | - |
| 1787465128 | 18.33° C | 74% | 1024.6 hPa | 0 mm | - | - | - |
| 1787464822 | 17.78° C | 74% | 1024.6 hPa | 0 mm | - | - | - |
| 1787464516 | 17.78° C | 75% | 1024.6 hPa | 0 mm | - | - | - |
| 1787464330 | 17.78° C | 76% | 1024.6 hPa | 0 mm | - | - | - |
| 1787464319 | 17.78° C | 75% | 1024.7 hPa | 0 mm | - | - | - |
| 1787463597 | 16.67° C | 77% | 1024.6 hPa | 0 mm | - | - | - |
| 1787463293 | 16.11° C | 79% | 1024.5 hPa | 0 mm | - | - | - |
| 1787462986 | 15.56° C | 81% | 1024.5 hPa | 0 mm | - | - | - |
| 1787462680 | 15° C | 85% | 1024.5 hPa | 0 mm | - | - | - |
| 1787462374 | 13.89° C | 88% | 1024.6 hPa | 0 mm | - | - | - |
| 1787462069 | 13.33° C | 88% | 1024.5 hPa | 0 mm | - | - | - |
| 1787461762 | 12.78° C | 88% | 1024.4 hPa | 0 mm | - | - | - |
| 1787461455 | 12.78° C | 89% | 1024.3 hPa | 0 mm | - | - | - |
| 1787461150 | 12.22° C | 88% | 1024.4 hPa | 0 mm | - | - | - |
| 1787460843 | 12.22° C | 89% | 1024.3 hPa | 0 mm | - | - | - |
| 1787460538 | 12.22° C | 89% | 1024.3 hPa | 0 mm | - | - | - |
| 1787460235 | 12.22° C | 88% | 1024.3 hPa | 0 mm | - | - | - |
| 1787459926 | 12.22° C | 88% | 1024.2 hPa | 0 mm | - | - | - |
| 1787459620 | 12.22° C | 88% | 1024.2 hPa | 0 mm | - | - | - |
* Rain latest hour (hover to see other rain measurements)
** Current wind speed in m/s (hover to see current wind gust speed)